Tekamah, NE

6:55 PM CST on February 19, 2017 (GMT -0600)
Tekamah

Weather History for KTQE - May, 2013

Change the Weather History Date:

Monday, May 20, 2013

  Actual Average Record
Temperature  
Mean Temperature 67 °F -  
Max Temperature 79 °F 77 °F 94 °F (1975)
Min Temperature 57 °F 51 °F 35 °F (1997)
Cooling Degree Days 2    
Growing Degree Days 17 (Base 50)    
Moisture  
Dew Point 55 °F    
Average Humidity 72    
Maximum Humidity 94    
Minimum Humidity 43    
Precipitation  
Precipitation 0.01 in - - ()
Sea Level Pressure  
Sea Level Pressure 29.54 in    
Wind  
Wind Speed 11 mph (SW)    
Max Wind Speed 25 mph    
Max Gust Speed 31 mph    
Visibility 7 miles    
Events      
Averages and records for this station are not official NWS values.
T = Trace of Precipitation, MM = Missing Value Source: NWS Daily Summary

Daily Weather History Graph

Daily Weather History Graph

Search for Another Location

Airport or City:

Trip Planner

Search our weather history database for the weather conditions in past years. The results will help you decide how hot, cold, wet, or windy it might be!

Date:

Astronomy

May. 20, 2013 Rise Set
Actual Time 6:00 AM CDT 8:43 PM CDT
Civil Twilight 5:27 AM CDT 9:15 PM CDT
Nautical Twilight 4:47 AM CDT 9:56 PM CDT
Astronomical Twilight 4:01 AM CDT 10:42 PM CDT
Moon 3:47 PM CDT 2:59 AM CDT
Length of Visible Light 15h 47m
Length of Day
14h 42m
Waxing Gibbous, 75% of the Moon is Illuminated
May 20
Waxing Gibbous
May 24
Full
May 31
Last Quarter
Jun 8
New
Jun 16
First Quarter

Hourly Weather History & Observations

Time (CDT) Temp. Dew Point Humidity Pressure Visibility Wind Dir Wind Speed Gust Speed Precip Events Conditions
12:54 AM 57.9 °F 55.9 °F 93% 29.51 in 6.0 mi South 8.1 mph - N/A   Clear
1:54 AM 57.9 °F 55.9 °F 93% 29.53 in 5.0 mi SSE 8.1 mph - N/A   Clear
3:54 AM 59.0 °F 55.9 °F 90% 29.50 in 5.0 mi SSE 11.5 mph - N/A   Mostly Cloudy
4:54 AM 57.0 °F 55.0 °F 93% 29.49 in 2.5 mi SSW 8.1 mph - N/A   Partly Cloudy
5:54 AM 57.0 °F 55.0 °F 93% 29.52 in 2.0 mi South 5.8 mph - N/A   Mostly Cloudy
6:11 AM 57.2 °F 55.4 °F 94% 29.54 in 3.0 mi SSE 6.9 mph - N/A   Overcast
6:22 AM 57.2 °F 55.4 °F 94% 29.55 in 3.0 mi South 6.9 mph - N/A   Overcast
6:44 AM 59.0 °F 55.4 °F 88% 29.55 in 3.0 mi South 5.8 mph - N/A   Overcast
6:54 AM 59.0 °F 55.9 °F 90% 29.53 in 4.0 mi SSW 8.1 mph - N/A   Overcast
7:17 AM 60.8 °F 57.2 °F 88% 29.57 in 4.0 mi SW 10.4 mph - N/A   Overcast
7:42 AM 60.8 °F 57.2 °F 88% 29.58 in 4.0 mi WSW 10.4 mph - 0.00 in   Overcast
7:54 AM 61.0 °F 57.0 °F 87% 29.55 in 5.0 mi West 11.5 mph - 0.00 in   Overcast
8:02 AM 62.6 °F 57.2 °F 82% 29.59 in 6.0 mi West 12.7 mph - N/A   Haze
10:54 AM 68.0 °F 55.0 °F 63% 29.60 in 10.0 mi SW 19.6 mph 25.3 mph N/A   Partly Cloudy
11:54 AM 71.1 °F 55.0 °F 57% 29.60 in 10.0 mi SW 16.1 mph 24.2 mph N/A   Mostly Cloudy
12:54 PM 73.0 °F 55.0 °F 53% 29.60 in 10.0 mi SW 16.1 mph 25.3 mph N/A   Partly Cloudy
1:54 PM 73.0 °F 55.9 °F 55% 29.59 in 10.0 mi SSW 19.6 mph - N/A   Overcast
2:54 PM 77.0 °F 55.9 °F 48% 29.56 in 10.0 mi South 21.9 mph 29.9 mph N/A   Mostly Cloudy
3:54 PM 73.9 °F 55.0 °F 52% 29.55 in 10.0 mi SSW 25.3 mph 31.1 mph N/A   Overcast
4:54 PM 75.9 °F 55.9 °F 50% 29.53 in 10.0 mi SW 16.1 mph - N/A   Mostly Cloudy
5:54 PM 75.0 °F 52.0 °F 44% 29.52 in 10.0 mi WSW 20.7 mph - N/A   Mostly Cloudy
6:54 PM 75.9 °F 52.0 °F 43% 29.50 in 10.0 mi WSW 18.4 mph - N/A   Partly Cloudy
7:54 PM 73.0 °F 51.1 °F 46% 29.51 in 10.0 mi WSW 12.7 mph - N/A   Clear
8:54 PM 66.9 °F 51.1 °F 57% 29.52 in 10.0 mi SW 9.2 mph - N/A   Clear
9:54 PM 64.9 °F 52.0 °F 63% 29.53 in 10.0 mi WSW 10.4 mph - N/A   Overcast
10:54 PM 63.0 °F 51.1 °F 65% 29.54 in 10.0 mi WSW 11.5 mph - N/A   Mostly Cloudy
11:54 PM 63.0 °F 55.0 °F 75% 29.55 in 10.0 mi West 11.5 mph - N/A   Overcast